Torna al catalogo

STARLINK-5191

AttivoComunicazioniVLEO
NORAD 54763·PAYLOAD·🇺🇸 United States

Lanciato Dec 17, 2022 da Cape Canaveral Space Force Station

Loading…

Prossimi Passaggi (prossime 24 ore)

TLE

AggiornatoSource: CelesTrak SupGP

Epoca: Sep 14, 2026, 21:44 UTC

1 54763C 22175F   26257.90604167  .00428940  00000+0  13052-1 0  2572
2 54763  53.1605 272.0957 0001067  88.4245 230.2045 15.33246805    18

Traccia STARLINK-5191 in tempo reale con AllMySat

Download on the App Store